Погода в Томске

Хотите узнать прогноз погоды в Томске? Тогда Вам сюда: Погода в Томске

Поиск расширенной информации на нашем сайте:

Полезная информация:

Новости сайта



02.01.2020
Опубликован Долгосрочный прогноз погоды по городам России и ближнего зарубежья на январь 2020 года.
Карты: Прогноз на январь и февраль 2020 года, Сравнение прогнозируемой аномалии приземной температуры воздуха на январь 2020 года по разным моделям.




Погода в Томске - сегодня

Время (UTC), дата Ветер
(°,м/с) 
Видим.   Явления Облачность Т
(°С)
Тd
(°С)
f(%) Тe
(°С)
Pmin
(гПа)
dP
(гПа)
Po
(мм)
O2
(г/м3)
Тmin Tmax R s Состояние
почвы
09 19.09.20 260 (З) 4000 м  ливневой дождь  10/10 240 м кучево-дожд. 
[Cb cap]
+9.3 +8.3 93 +10  1016.9  1.7  750  291           
12 19.09.20 тихо ()   20000 м  слаб. дождь{ливн. осадки}  10/5 600 м средняя 
[Sc|As op]
+9.5 +8.9 96 +10  1018  1.1  751  291    +10     
15 19.09.20 тихо ()   20000 м  {дождь}  10/0 средняя 
[As op]
+9.2 +8.7 97 +9  1019.4  1.4  752  292           
18 19.09.20 тихо ()   20000 м  {дождь}  6/0 средняя 
[Ac trans]
+9 +8.2 95 +9  1019.3  -0.2  752  292           
21 19.09.20 тихо ()   20000 м    3/0 средняя 
[Ac trans]
+8.1 +7.3 95 +8  1019.3  752  293           
00 20.09.20 тихо ()   20000 м    10/0 средняя 
[As op]
+8 +7.4 96 +8  1019.6  0.3  752  293  +8    0.0    влажная 
03 20.09.20 100 (В) 20000 м    10/0 верхняя 
[Cs]
+11.5 +8.1 80 +13  1019.5  0.1  752  289  +7.9         
06 20.09.20 160 (Ю) 20000 м    8/0 средняя, верхняя 
[Ac trans|Ci fib]
+18.2 +9.2 56 +20  1018.7  -0.4  752  282           
09 20.09.20 250 (З) 20000 м    4/4 600 м 
[Cu hum]
+20.7 +7.4 42 +21  1016.9  -1.7  750  280           
12 20.09.20 тихо ()   20000 м    10/0 верхняя 
[Ci fib]
+14.9 +7.9 63 +15  1017.1  -0.1  750  285    +20.9       
15 20.09.20 тихо ()   20000 м    ясно 
+10.5 +8 84 +11  1017.4  0.1  750  290           
18 20.09.20 050 (СВ) 20000 м    ясно 
+8.5 +7.1 91 +10  1017.4  -0.2  750  292           
21 20.09.20 050 (СВ) 20000 м    ясно 
+6.6 +5.8 95 +8  1016.7  -0.8  750  294           
00 21.09.20 050 (СВ) 20000 м    1/0 верхняя 
[Ci fib]
+5.5 +4.9 96 +6  1015.6  -1.1  749  295  +5.5        влажная 
03 21.09.20 050 (СВ) 20000 м    6/0 верхняя 
[Ci fib]
+12.7 +7.7 72 +14  1014  -1.2  748  287           
06 21.09.20 130 (ЮВ) 20000 м    3/0 верхняя 
[Ci fib]
+20.2 +6.3 40 +20  1011.3  -2.2  746  279           
09 21.09.20 100 (В) 20000 м    3/0 верхняя 
[Ci fib]
+21.7 +6.8 38 +22  1009.1  -2.1  745  277           
12 21.09.20 120 (ЮВ) 20000 м    3/0 верхняя 
[Ci fib]
+18.3 +4.3 39 +20  1008.5  -0.8  744  280    +21.8       
15 21.09.20 110 (В) 20000 м    ясно 
+16.7 +3.3 41 +18  1007.9  -0.7  744  282           
18 21.09.20 120 (ЮВ) 20000 м    ясно 
+15.7 +4.9 49 +17  1006.7  -1.1  743  282           
21 21.09.20 110 (В) 20000 м    ясно 
+16 +4.1 45 +17  1005.1  -1.6  742  282           
00 22.09.20 140 (ЮВ) 20000 м    10/0 верхняя 
[Ci fib]
+13.4 +4.8 56 +15  1004.5  -0.8  741  284  +13.4        влажная 
03 22.09.20 270 (З) 20000 м    10/1 600 м верхняя 
[Sc|Ci fib]
+13 +4.8 57 +14  1008.1  3.6  744  285  +11.5         
06 22.09.20 240 (ЮЗ) 20000 м    10/3 600 м средняя, верхняя 
[Sc|Ac trans|Ci sp]
+15.5 -0.1 34 +17  1010.5  2.5  746  284           
09 22.09.20 250 (З) 20000 м    10/6 600 м средняя, верхняя 
[Sc|Ac trans|Ci sp]
+15.2 -0.8 33 +17  1011.8  1.2  746  285           
Время (UTC), дата Ветер
(°,м/с) 
Видим.   Явления Облачность Т
(°С)
Тd
(°С)
f(%) Тe
(°С)
Pmin
(гПа)
dP
(гПа)
Po
(мм)
O2
(г/м3)
Тmin Tmax R s Состояние
почвы

Для получения пояснительной информации подведите курсор к названию столбца.

ПОГОДА в Томске - архив

Всё, что Вы хотите узнать о погоде в Томске - удобно и подробно!

Выберите нужную дату (начиная с 1 января 2019* года) и нажмите кнопку "Найти".
Будут отображены архивные сводки погоды по пункту Томск, начиная с указанной даты.


Отображать данные в формате CSV (для использования в таблицах Excel)


Внимание! Наш архив погоды предназначен исключительно для личного некоммерческого использования в познавательных целях. Если Вам необходимы официальные справки о состоянии погоды (для производственных, юридических, коммерческих и т.п. целей), обращайтесь в органы Росгидромета.

*Примечание: данная дата относится к архиву по метеостанциям СССР (Россия, СНГ, Балтия).
Архив по метеостанциям Зарубежной Европы и Азии (кроме Китая) хранится 10 дней, по другим регионам земного шара (Китай, Африка, Америка, Австралия, Океания) - 1 день.

Томск - район местоположения метеостанции


Название, широта, долгота, высота метеостанции:
Томск 56.5°ш. 84.9°д. 139 м над ур. моря [Российская Федерация]

Дополнительная информация

В oтличие oт бoльшинства пoгoдных сайтoв мы публикуем пoдрoбную метеoинфoрмацию в детальнoм прoфессиoнальнoм фoрмате.

Характеристики температуры и влажнoсти вoздуха измеряются на высoте 2 м в тени вдали oт зданий и деревьев.
Скoрoсть ветра измеряется на высoте 10 м (на урoвне рoста челoвека скoрoсть ветра ниже в 1.5-2 раза). Если метеoстанция нахoдится в гoрoде или в лесу, тo скoрoсть ветра занижена на 2-4 м/с пo сравнению с oткрытым местoм. Скoрoсть ветра над акватoриями крупных рек и oзёр, а также на вершинах хoлмoв на 2-5 м/с выше, чем в oбычных услoвиях.
Атмoсфернoе давление в разных тoчках местнoсти мoжет значительнo oтличаться oт давления на метеoстанции, в зависимoсти oт услoвий рельефа (при пoдъёме на 10 м давление пoнижается примернo на 1 мм рт.ст.).